This demonstration page uses our WeatherBlox Daily Observations layout. Learn more.

Left ArrowRight Arrow

Hourly Observations for September 17, 2020

Temp ( °F °C ) Dew Point ( °F °C ) Humidity (%) Winds ( mph kmh ) Pressure ( in mb ) Visibility ( mi km ) Precip ( " mm )
12:52 am 00:52 Mostly Cloudy 55 12.8 51 10.6 87 87 NW 6 9 30.20 1023 10 16 0.00 0.00
1:52 am 01:52 Mostly Cloudy 55 12.8 51 10.6 87 87 N 6 9 30.19 1023 10 16 0.00 0.00
2:52 am 02:52 Mostly Cloudy 53 11.7 50 10 89 89 N 6 9 30.19 1023 10 16 0.00 0.00
3:52 am 03:52 Mostly Cloudy 52 11.1 49 9.4 89 89 NNW 6 9 30.19 1023 10 16 0.00 0.00
4:52 am 04:52 Mostly Cloudy 51 10.6 49 9.4 92 92 N 6 9 30.20 1023 10 16 0.00 0.00
5:52 am 05:52 Mostly Cloudy 51 10.6 48 8.9 89 89 N 7 11 30.21 1023 10 16 0.00 0.00
6:52 am 06:52 Mostly Cloudy 49 9.4 48 8.9 97 97 N 7 11 30.22 1024 10 16 0.00 0.00
7:52 am 07:52 Mostly Cloudy 49 9.4 47 8.3 93 93 NNW 6 9 30.24 1024 10 16 0.00 0.00
8:52 am 08:52 Mostly Cloudy 52 11.1 49 9.4 89 89 NNW 5 7 30.25 1025 10 16 0.00 0.00
9:52 am 09:52 Cloudy 55 12.8 49 9.4 80 80 NNW 6 9 30.26 1025 10 16 0.00 0.00
10:52 am 10:52 Mostly Cloudy 61 16.1 50 10 67 67 VRB 3 6 30.26 1025 10 16 0.00 0.00
11:52 am 11:52 Mostly Cloudy 64 17.8 51 10.6 63 63 Calm 30.25 1024 10 16 0.00 0.00
12:52 pm 12:52 Cloudy 68 20 50 10 53 53 VRB 3 6 30.24 1024 10 16 0.00 0.00
1:52 pm 13:52 Cloudy 69 20.6 50 10 51 51 S 6 9 30.22 1023 10 16 0.00 0.00
2:52 pm 14:52 Cloudy 71 21.7 49 9.4 46 46 W 3 6 30.19 1022 10 16 0.00 0.00
3:52 pm 15:52 Cloudy 70 21.1 49 9.4 47 47 S 3 6 30.17 1022 10 16 0.00 0.00
4:52 pm 16:52 Cloudy 73 22.8 49 9.4 43 43 Calm 30.16 1021 10 16 0.00 0.00
5:52 pm 17:52 Cloudy 72 22.2 48 8.9 43 43 VRB 3 6 30.15 1021 10 16 0.00 0.00
6:52 pm 18:52 Cloudy 71 21.7 50 10 47 47 E 3 6 30.15 1021 10 16 0.00 0.00
7:52 pm 19:52 Cloudy 63 17.2 56 13.3 78 78 Calm 30.16 1022 10 16 0.00 0.00
8:52 pm 20:52 Cloudy 58 14.4 55 12.8 90 90 NNW 3 6 30.19 1022 10 16 0.00 0.00
9:52 pm 21:52 Cloudy 56 13.3 52 11.1 87 87 NW 5 7 30.21 1023 10 16 0.00 0.00
10:52 pm 22:52 Mostly Cloudy 54 12.2 50 10 87 87 NNW 8 13 30.22 1024 10 16 0.00 0.00
11:52 pm 23:52 Partly Cloudy 55 12.8 49 9.4 80 80 N 8 13 30.24 1024 10 16 0.00 0.00

Powered by AerisWeather